TimeMST,TemperatureF,Dew PointF,Humidity,Sea Level PressureIn,VisibilityMPH,Wind Direction,Wind SpeedMPH,Gust SpeedMPH,PrecipitationIn,Events,Conditions,WindDirDegrees,DateUTC
12:15 AM,55.4,30.2,38,30.06,10.0,NE,5.8,-,N/A,,Clear,40,2013-03-19 07:15:00
12:55 AM,53.6,32.0,44,30.06,10.0,NNE,6.9,-,N/A,,Clear,30,2013-03-19 07:55:00
1:15 AM,53.6,32.0,44,30.05,10.0,NE,6.9,-,N/A,,Clear,50,2013-03-19 08:15:00
1:35 AM,53.6,32.0,44,30.06,10.0,NE,8.1,-,N/A,,Clear,40,2013-03-19 08:35:00
1:55 AM,53.6,32.0,44,30.06,10.0,NE,9.2,-,N/A,,Clear,40,2013-03-19 08:55:00
2:15 AM,53.6,32.0,44,30.06,10.0,NE,9.2,-,N/A,,Clear,40,2013-03-19 09:15:00
2:35 AM,53.6,30.2,41,30.04,10.0,NE,9.2,-,N/A,,Clear,40,2013-03-19 09:35:00
2:55 AM,53.6,30.2,41,30.04,10.0,NE,10.4,-,N/A,,Clear,40,2013-03-19 09:55:00
3:15 AM,53.6,32.0,44,30.03,10.0,NE,8.1,-,N/A,,Scattered Clouds,40,2013-03-19 10:15:00
3:35 AM,53.6,30.2,41,30.02,10.0,NE,10.4,-,N/A,,Scattered Clouds,40,2013-03-19 10:35:00
3:55 AM,53.6,32.0,44,30.01,10.0,NE,10.4,-,N/A,,Scattered Clouds,40,2013-03-19 10:55:00
4:15 AM,53.6,32.0,44,30.00,10.0,NE,9.2,-,N/A,,Scattered Clouds,40,2013-03-19 11:15:00
4:35 AM,53.6,32.0,44,30.02,10.0,NE,6.9,-,N/A,,Clear,40,2013-03-19 11:35:00
4:55 AM,53.6,32.0,44,30.02,10.0,NNE,9.2,-,N/A,,Mostly Cloudy,30,2013-03-19 11:55:00
5:15 AM,53.6,32.0,44,30.03,10.0,NE,9.2,-,N/A,,Scattered Clouds,40,2013-03-19 12:15:00
5:35 AM,53.6,32.0,44,30.02,10.0,NE,8.1,-,N/A,,Clear,50,2013-03-19 12:35:00
5:55 AM,53.6,32.0,44,30.03,10.0,NE,6.9,-,N/A,,Clear,50,2013-03-19 12:55:00
6:15 AM,53.6,32.0,44,30.04,10.0,NE,4.6,-,N/A,,Scattered Clouds,40,2013-03-19 13:15:00
6:35 AM,53.6,32.0,44,30.04,10.0,ENE,4.6,-,N/A,,Scattered Clouds,60,2013-03-19 13:35:00
6:55 AM,53.6,32.0,44,30.06,10.0,NE,5.8,-,N/A,,Clear,40,2013-03-19 13:55:00
7:15 AM,53.6,32.0,44,30.06,10.0,NE,3.5,-,N/A,,Clear,40,2013-03-19 14:15:00
7:35 AM,53.6,32.0,44,30.07,10.0,NE,6.9,-,N/A,,Clear,40,2013-03-19 14:35:00
7:55 AM,53.6,32.0,44,30.08,10.0,NE,5.8,-,N/A,,Scattered Clouds,50,2013-03-19 14:55:00
8:15 AM,55.4,32.0,41,30.08,10.0,NE,6.9,-,N/A,,Scattered Clouds,50,2013-03-19 15:15:00
8:35 AM,55.4,32.0,41,30.08,10.0,NE,4.6,-,N/A,,Clear,50,2013-03-19 15:35:00
8:55 AM,57.2,32.0,38,30.09,10.0,NE,4.6,-,N/A,,Clear,50,2013-03-19 15:55:00
9:15 AM,60.8,32.0,34,30.10,10.0,Calm,Calm,-,N/A,,Clear,0,2013-03-19 16:15:00
9:35 AM,62.6,32.0,32,30.10,10.0,South,4.6,-,N/A,,Scattered Clouds,180,2013-03-19 16:35:00
9:55 AM,60.8,32.0,34,30.10,10.0,Calm,Calm,-,N/A,,Mostly Cloudy,0,2013-03-19 16:55:00
10:15 AM,62.6,32.0,32,30.10,10.0,South,3.5,-,N/A,,Mostly Cloudy,190,2013-03-19 17:15:00
10:35 AM,62.6,30.2,30,30.10,10.0,Calm,Calm,-,N/A,,Overcast,0,2013-03-19 17:35:00
10:55 AM,62.6,28.4,27,30.10,10.0,Calm,Calm,-,N/A,,Overcast,0,2013-03-19 17:55:00
11:15 AM,64.4,26.6,24,30.10,10.0,West,3.5,-,N/A,,Scattered Clouds,260,2013-03-19 18:15:00
11:35 AM,66.2,28.4,24,30.10,10.0,South,5.8,-,N/A,,Clear,170,2013-03-19 18:35:00
11:55 AM,69.8,28.4,21,30.09,10.0,SE,4.6,-,N/A,,Clear,140,2013-03-19 18:55:00
12:15 PM,68.0,24.8,20,30.09,10.0,West,6.9,-,N/A,,Clear,260,2013-03-19 19:15:00
12:35 PM,68.0,23.0,18,30.09,10.0,South,5.8,-,N/A,,Clear,170,2013-03-19 19:35:00
12:55 PM,68.0,24.8,20,30.08,10.0,WNW,5.8,-,N/A,,Clear,290,2013-03-19 19:55:00
1:15 PM,69.8,24.8,18,30.08,10.0,WNW,6.9,10.4,N/A,,Clear,290,2013-03-19 20:15:00
1:35 PM,69.8,23.0,17,30.07,10.0,SW,4.6,-,N/A,,Clear,230,2013-03-19 20:35:00
1:55 PM,71.6,23.0,16,30.06,10.0,West,5.8,-,N/A,,Clear,260,2013-03-19 20:55:00
2:15 PM,69.8,23.0,17,30.06,10.0,WNW,5.8,-,N/A,,Scattered Clouds,300,2013-03-19 21:15:00
2:35 PM,71.6,23.0,16,30.06,10.0,SSW,5.8,-,N/A,,Mostly Cloudy,210,2013-03-19 21:35:00
2:55 PM,71.6,23.0,16,30.05,10.0,West,5.8,-,N/A,,Scattered Clouds,270,2013-03-19 21:55:00
3:15 PM,69.8,21.2,16,30.05,10.0,West,5.8,-,N/A,,Mostly Cloudy,260,2013-03-19 22:15:00
3:35 PM,71.6,21.2,15,30.05,10.0,WNW,5.8,-,N/A,,Scattered Clouds,300,2013-03-19 22:35:00
3:55 PM,71.6,23.0,16,30.05,10.0,WNW,5.8,-,N/A,,Clear,290,2013-03-19 22:55:00
4:15 PM,71.6,23.0,16,30.05,10.0,SW,6.9,-,N/A,,Scattered Clouds,230,2013-03-19 23:15:00
4:35 PM,71.6,23.0,16,30.05,10.0,WSW,4.6,-,N/A,,Mostly Cloudy,240,2013-03-19 23:35:00
4:55 PM,71.6,23.0,16,30.05,10.0,South,3.5,-,N/A,,Mostly Cloudy,170,2013-03-19 23:55:00
5:15 PM,71.6,21.2,15,30.06,10.0,SW,5.8,-,N/A,,Mostly Cloudy,230,2013-03-20 00:15:00
5:35 PM,69.8,21.2,16,30.06,10.0,WSW,3.5,-,N/A,,Mostly Cloudy,240,2013-03-20 00:35:00
5:55 PM,69.8,21.2,16,30.06,10.0,WNW,4.6,-,N/A,,Mostly Cloudy,290,2013-03-20 00:55:00
6:15 PM,68.0,23.0,18,30.07,10.0,WSW,3.5,-,N/A,,Overcast,250,2013-03-20 01:15:00
6:35 PM,64.4,28.4,26,30.07,10.0,SSE,3.5,-,N/A,,Scattered Clouds,160,2013-03-20 01:35:00
6:55 PM,64.4,30.2,28,30.09,10.0,SSE,6.9,-,N/A,,Clear,150,2013-03-20 01:55:00
7:15 PM,64.4,32.0,30,30.10,10.0,SSW,4.6,-,N/A,,Clear,200,2013-03-20 02:15:00
7:35 PM,62.6,32.0,32,30.11,10.0,Calm,Calm,-,N/A,,Clear,0,2013-03-20 02:35:00
7:55 PM,60.8,32.0,34,30.12,10.0,SE,5.8,-,N/A,,Clear,130,2013-03-20 02:55:00
8:15 PM,60.8,32.0,34,30.14,10.0,Calm,Calm,-,N/A,,Clear,0,2013-03-20 03:15:00
8:35 PM,60.8,32.0,34,30.14,10.0,Calm,Calm,-,N/A,,Clear,0,2013-03-20 03:35:00
8:55 PM,60.8,30.2,31,30.15,10.0,ENE,4.6,-,N/A,,Clear,60,2013-03-20 03:55:00
9:15 PM,59.0,26.6,29,30.15,10.0,NE,8.1,-,N/A,,Clear,50,2013-03-20 04:15:00
9:35 PM,59.0,24.8,27,30.15,10.0,ENE,10.4,16.1,N/A,,Clear,60,2013-03-20 04:35:00
9:55 PM,59.0,24.8,27,30.15,10.0,NE,8.1,-,N/A,,Clear,50,2013-03-20 04:55:00
10:15 PM,57.2,26.6,31,30.17,10.0,NE,8.1,-,N/A,,Clear,40,2013-03-20 05:15:00
10:35 PM,57.2,24.8,29,30.17,10.0,ENE,10.4,-,N/A,,Clear,60,2013-03-20 05:35:00
10:55 PM,57.2,24.8,29,30.18,10.0,NE,9.2,-,N/A,,Clear,50,2013-03-20 05:55:00
11:15 PM,55.4,24.8,31,30.17,10.0,NE,10.4,-,N/A,,Clear,40,2013-03-20 06:15:00
11:55 PM,55.4,23.0,29,30.18,10.0,NE,12.7,-,N/A,,Clear,50,2013-03-20 06:55:00